STARLINK-5242 (54173 NORAD) Tracking and Keplerian Element Data

This shows tracking and keplerian element data for the satellite.

Feedback or suggestion? Click here.




ElementValue
Catalog54173
NameSTARLINK-5242
Epoch Orbit384
Epoch Day325.25001157
Epoch Year2022
RAAN24.1182
Inclination53.2187
Eccentricity0.0003024
Argument of Perigee12.8896
Mean Anonmoly5.5669
Mean Motion15.73239459
Decay Rate-0.00071602
L11 54173U 22141S 22325.25001157 -.00071602 00000+0 -50907-3 0 9996
L22 54173 53.2187 24.1182 0003024 12.8896 5.5669 15.73239459 3843



Live tracking and technical data element details for STARLINK-5242 (NORAD 54173). STARLINK-5242 can be tracked NOW for your location showing map with azimuth and elevation plus other details from your city location.







IsCatalogInMostPopularTable: catalog: 54173, numindb: 8
Update: records affected: 1



GetName: 54173 STARLINK-5242

Hit Count: updated at: Fri, 09 Dec 2022 19:09:12 GMT